EN

Hourly Weather Gogol

Today, 18 May, Tuesday

Time Temperature Precipitation Wind Pressure Humidity
00:00 +14°C° 0.1 mm 1 mps 737 mmHg 98%
01:00 +14°C° 0.1 mm 1 mps 737 mmHg 98%
02:00 +14°C° 0 mm 1 mps 736 mmHg 99%
03:00 +14°C° 0 mm 2 mps 737 mmHg 98%
04:00 +13°C° 0 mm 3 mps 737 mmHg 98%
05:00 +13°C° 0 mm 3 mps 737 mmHg 98%
06:00 +14°C° 0 mm 3 mps 737 mmHg 96%
07:00 +14°C° 0 mm 3 mps 737 mmHg 93%
08:00 +16°C° 0 mm 3 mps 738 mmHg 91%
09:00 +17°C° 0 mm 3 mps 738 mmHg 86%
10:00 +18°C° 0 mm 3 mps 738 mmHg 80%
11:00 +19°C° 0 mm 3 mps 738 mmHg 75%
12:00 +19°C° 0.1 mm 3 mps 738 mmHg 73%
13:00 +20°C° 0.1 mm 3 mps 738 mmHg 71%
14:00 +20°C° 0.1 mm 2 mps 738 mmHg 69%
15:00 +20°C° 0.8 mm 2 mps 737 mmHg 75%
16:00 +19°C° 0.8 mm 2 mps 737 mmHg 80%
17:00 +18°C° 0.8 mm 2 mps 737 mmHg 86%
18:00 +17°C° 0.4 mm 2 mps 737 mmHg 89%
19:00 +16°C° 0.4 mm 2 mps 736 mmHg 92%
20:00 +15°C° 0.4 mm 2 mps 736 mmHg 95%
21:00 +15°C° 0.6 mm 2 mps 736 mmHg 96%
22:00 +15°C° 0.6 mm 2 mps 736 mmHg 96%
23:00 +15°C° 0.6 mm 2 mps 736 mmHg 97%

Tomorrow, 19 May, Wednesday

Time Temperature Precipitation Wind Pressure Humidity
00:00 +14°C° 0.9 mm 2 mps 736 mmHg 97%
01:00 +14°C° 0.9 mm 2 mps 736 mmHg 97%
02:00 +14°C° 0.9 mm 2 mps 736 mmHg 98%
03:00 +14°C° 0.2 mm 2 mps 736 mmHg 98%
04:00 +13°C° 0.2 mm 2 mps 736 mmHg 98%
05:00 +13°C° 0.2 mm 2 mps 736 mmHg 98%
06:00 +13°C° 0.1 mm 3 mps 736 mmHg 95%
07:00 +14°C° 0.1 mm 3 mps 736 mmHg 92%
08:00 +15°C° 0.1 mm 4 mps 737 mmHg 89%
09:00 +15°C° 0.1 mm 4 mps 737 mmHg 88%
10:00 +15°C° 0.1 mm 4 mps 737 mmHg 88%
11:00 +15°C° 0.1 mm 4 mps 738 mmHg 87%
12:00 +15°C° 0.2 mm 4 mps 738 mmHg 85%
13:00 +17°C° 0.2 mm 4 mps 738 mmHg 83%
14:00 +17°C° 0.2 mm 3 mps 738 mmHg 82%
15:00 +16°C° 0.4 mm 3 mps 739 mmHg 84%
16:00 +16°C° 0.4 mm 3 mps 739 mmHg 86%
17:00 +14°C° 0.4 mm 3 mps 739 mmHg 89%
18:00 +13°C° 0.1 mm 3 mps 739 mmHg 91%
19:00 +12°C° 0.1 mm 3 mps 739 mmHg 93%
20:00 +12°C° 0.1 mm 3 mps 740 mmHg 95%
21:00 +11°C° 0 mm 3 mps 740 mmHg 95%
22:00 +11°C° 0 mm 3 mps 740 mmHg 95%
23:00 +11°C° 0 mm 3 mps 740 mmHg 96%

Day after tomorrow, 20 May, Thursday

Time Temperature Precipitation Wind Pressure Humidity
00:00 +11°C° 0 mm 3 mps 740 mmHg 96%
01:00 +11°C° 0 mm 3 mps 739 mmHg 96%
02:00 +10°C° 0 mm 3 mps 739 mmHg 96%
03:00 +10°C° 0.1 mm 4 mps 739 mmHg 95%
04:00 +10°C° 0.1 mm 4 mps 739 mmHg 95%
05:00 +10°C° 0.1 mm 4 mps 740 mmHg 95%
06:00 +9°C° 0 mm 5 mps 740 mmHg 92%
07:00 +9°C° 0 mm 5 mps 740 mmHg 90%
08:00 +9°C° 0 mm 5 mps 740 mmHg 88%
09:00 +10°C° 0 mm 6 mps 740 mmHg 82%
10:00 +11°C° 0 mm 6 mps 740 mmHg 76%
11:00 +13°C° 0 mm 6 mps 740 mmHg 69%
12:00 +13°C° 0 mm 6 mps 741 mmHg 69%
13:00 +14°C° 0 mm 6 mps 741 mmHg 69%
14:00 +14°C° 0 mm 5 mps 741 mmHg 69%
15:00 +14°C° 0 mm 5 mps 741 mmHg 68%
16:00 +14°C° 0 mm 4 mps 742 mmHg 68%
17:00 +14°C° 0 mm 4 mps 742 mmHg 67%
18:00 +13°C° 0 mm 3 mps 742 mmHg 73%
19:00 +12°C° 0 mm 3 mps 743 mmHg 79%
20:00 +11°C° 0 mm 3 mps 743 mmHg 84%
21:00 +10°C° 0 mm 2 mps 743 mmHg 88%
22:00 +9°C° 0 mm 2 mps 744 mmHg 91%
23:00 +9°C° 0 mm 2 mps 744 mmHg 94%

21 May, Friday

Time Temperature Precipitation Wind Pressure Humidity
00:00 +8°C° 0 mm 2 mps 745 mmHg 94%
01:00 +8°C° 0 mm 2 mps 745 mmHg 95%
02:00 +8°C° 0 mm 2 mps 745 mmHg 95%
03:00 +8°C° 0 mm 2 mps 745 mmHg 95%
04:00 +8°C° 0 mm 2 mps 746 mmHg 94%
05:00 +8°C° 0 mm 2 mps 746 mmHg 94%
06:00 +9°C° 0 mm 2 mps 747 mmHg 87%
07:00 +12°C° 0 mm 2 mps 747 mmHg 79%
08:00 +13°C° 0 mm 2 mps 747 mmHg 72%
09:00 +15°C° 0 mm 2 mps 747 mmHg 67%
10:00 +16°C° 0 mm 2 mps 747 mmHg 62%
11:00 +17°C° 0 mm 2 mps 748 mmHg 56%
12:00 +17°C° 0 mm 2 mps 748 mmHg 53%
13:00 +18°C° 0 mm 2 mps 748 mmHg 50%
14:00 +18°C° 0 mm 3 mps 748 mmHg 46%
15:00 +18°C° 0 mm 2 mps 748 mmHg 49%
16:00 +18°C° 0 mm 2 mps 748 mmHg 52%
17:00 +17°C° 0 mm 2 mps 748 mmHg 55%
18:00 +15°C° 0 mm 2 mps 748 mmHg 62%
19:00 +14°C° 0 mm 2 mps 748 mmHg 69%
20:00 +12°C° 0 mm 2 mps 748 mmHg 75%
21:00 +10°C° 0 mm 2 mps 748 mmHg 76%
22:00 +10°C° 0 mm 1 mps 748 mmHg 77%
23:00 +9°C° 0 mm 1 mps 748 mmHg 78%

22 May, Saturday

Time Temperature Precipitation Wind Pressure Humidity
00:00 +9°C° 0 mm 1 mps 748 mmHg 79%
01:00 +9°C° 0 mm 1 mps 748 mmHg 79%
02:00 +8°C° 0 mm 1 mps 748 mmHg 80%
03:00 +8°C° 0 mm 1 mps 748 mmHg 80%
04:00 +8°C° 0 mm 1 mps 748 mmHg 80%
05:00 +9°C° 0 mm 1 mps 748 mmHg 80%
06:00 +11°C° 0 mm 1 mps 749 mmHg 74%
07:00 +13°C° 0 mm 1 mps 749 mmHg 68%
08:00 +15°C° 0 mm 1 mps 749 mmHg 62%
09:00 +16°C° 0 mm 1 mps 749 mmHg 58%
10:00 +17°C° 0 mm 2 mps 748 mmHg 53%
11:00 +19°C° 0 mm 2 mps 748 mmHg 49%
12:00 +19°C° 0 mm 3 mps 748 mmHg 49%
13:00 +19°C° 0 mm 3 mps 748 mmHg 49%
14:00 +20°C° 0 mm 3 mps 748 mmHg 48%
15:00 +20°C° 0 mm 3 mps 748 mmHg 52%
16:00 +20°C° 0 mm 3 mps 747 mmHg 55%
17:00 +20°C° 0 mm 3 mps 747 mmHg 58%
18:00 +18°C° 0 mm 3 mps 747 mmHg 66%
19:00 +16°C° 0 mm 3 mps 747 mmHg 74%
20:00 +13°C° 0 mm 3 mps 747 mmHg 82%
21:00 +13°C° 0 mm 3 mps 746 mmHg 82%
22:00 +12°C° 0 mm 3 mps 746 mmHg 83%
23:00 +12°C° 0 mm 3 mps 746 mmHg 83%

23 May, Sunday

Time Temperature Precipitation Wind Pressure Humidity
00:00 +12°C° 0 mm 3 mps 746 mmHg 83%
01:00 +12°C° 0 mm 3 mps 745 mmHg 83%
02:00 +12°C° 0 mm 4 mps 745 mmHg 82%
03:00 +12°C° 0 mm 4 mps 745 mmHg 83%
04:00 +12°C° 0 mm 4 mps 744 mmHg 83%
05:00 +12°C° 0 mm 4 mps 744 mmHg 84%
06:00 +13°C° 0 mm 5 mps 744 mmHg 82%
07:00 +14°C° 0 mm 5 mps 743 mmHg 80%
08:00 +15°C° 0 mm 5 mps 743 mmHg 78%
09:00 +16°C° 0.2 mm 6 mps 743 mmHg 77%
10:00 +17°C° 0.2 mm 6 mps 743 mmHg 76%
11:00 +19°C° 0.2 mm 6 mps 743 mmHg 75%
12:00 +17°C° 0.3 mm 6 mps 744 mmHg 74%
13:00 +16°C° 0.3 mm 5 mps 744 mmHg 73%
14:00 +15°C° 0.3 mm 5 mps 745 mmHg 72%
15:00 +15°C° 0 mm 5 mps 745 mmHg 69%
16:00 +15°C° 0 mm 4 mps 745 mmHg 67%
17:00 +17°C° 0 mm 4 mps 745 mmHg 64%
18:00 +14°C° 0 mm 3 mps 745 mmHg 71%
19:00 +13°C° 0 mm 3 mps 746 mmHg 77%
20:00 +12°C° 0 mm 2 mps 746 mmHg 84%
21:00 +12°C° 0 mm 2 mps 746 mmHg 86%
22:00 +10°C° 0 mm 2 mps 746 mmHg 88%
23:00 +10°C° 0 mm 2 mps 747 mmHg 89%
Show more